PROBA-1

Last updated on Tue Sep 22 2026 00:03:51 GMT+0000 (Coordinated Universal Time)

1 26958U 01049B 26264.63652943 .00001360 00000+0 90436-4 0 9997 2 26958 97.9631 276.5740 0055003 155.1926 205.1964 15.07821509358157
UTC large
Height (km)
Speed (km/s)
/
Latitude / Longitude
Inclination (degrees)
Orbital Period (minutes)
Azimuth
Elevation
Range (km)
Doppler Factor

Next 0 passes for location: London (51.5072 / 0.1276)

No passes found over London.
PROBA-1